STARLINK-3709, 52102

Orbit data source: Space-Track

STARLINK-3709, 52102 is a payload satellite owned by SpaceX/Seattle (US) in LEO that was launched on Sat, 19 Mar 2022 UTC via an FALCON 9 launch vehicle from the Air Force Eastern Test Range (AFETR). Payload-class satellites include a variety of spacecraft equipped with specific instruments for various scientific and technological missions. These include communications satellites like Starlink; space stations such as the ISS; scientific satellites like the Hubble; Earth observation satellites from companies like Planet Labs, Umbra, and HawkEye 360; GPS; miniature CubeSats for education and research; and military/defense satellites.

Loading next visibility...
Identifier
52102, 2022-029Q
Orbit
LEO
Country
Flag of USUS
Related business
Manufacturer
SpaceX/Seattle
Mission
Operational Commercial Communications
Bus & Motor
STARLINK, Unknown motor
Mass
297 kg wet, ~275 kg dry
Launch date (UTC)
2022-03-19 (4 years ago)
Launch vehicle
FALCON 9
Launch site
Air Force Eastern Test Range (AFETR)
Object type
Payload
Rocket body
Debris
Shape & HBR
Box + 1 Pan, 10.1 m
Radar Cross Section
13.562 m², Large (>1 m²)

Expand to show TLE details & history
Last TLE update: 2 days ago

TLE from 2 days ago
0 STARLINK-3709
1 52102U 22029Q   26171.20375299  .00000245  00000-0  33479-4 0  9990
2 52102  53.1608 338.8014 0001284  82.4357 277.6780 15.08835745236268
Epoch: 2026-06-20T04:53Z
TLE epoch observation values (Epoch: 2026-06-20T04:53:24.258Z)
Latitude
-0.00003°
Longitude
-2.97144°
Altitude
540.529 km
Speed
7.593 km/s
True Right ascension
22h 35m 12s
True Declination
0° 00' 00"
Sunlit
Object was in daylight at epoch
Visualization orbit readout
Latitude
Unknown
Longitude
Unknown
Altitude
Unknown
Speed
Unknown
Apparent Right ascension
Unknown
Apparent Declination
Unknown
Sunlit
N/A
Visualization observer readout
Local Sidereal Time
23:07:29
Azimuth
Unknown
Elevation
Unknown
Doppler factor
Unknown
Orbital elements
Apogee altitude
540.899 km
Perigee altitude
539.122 km
Semi-major axis
6,918.147 km
Eccentricity
0.00013
Inclination
53.1608°
RAAN
338.8014°
Arg. of periapsis
82.4357°
True anomaly
277.66342°
Mean anomaly
277.678°
Eccentric anomaly
277.67071°
Mean motion
3.77189 °/min
Orbital period
95.44 mins
BSTAR
0.000033479
Loading maneuver chart data...
Computing Atmospheric mass density...

Documentation

Showing up to 5 results
|